Location: Grasslands National Park East Block
(49.0708°N, 106.5295°W)
Time: 15:07:28
(UTC-06:00)

Vanguard 1 - Pass Details

Date: 28 September 2019
Orbit: 653 x 3830 km, 34.2° (Epoch: 20 October)

Event Time Altitude Azimuth Distance (km) Brightness Sun altitude
Rises 22:58:20 0° 198° (SSW) 6,441 - -36.8°
Reaches altitude 10° 23:03:14 10° 186° (S) 5,857 - -37.3°
Maximum altitude 23:18:00 28° 137° (SE) 5,356 - -38.7°
Exits shadow 23:31:29 16° 97° (E) 6,439 13.9 -39.8°
Drops below altitude 10° 23:35:08 10° 90° (E) 6,881 14.1 -40.1°
Sets 23:41:29 0° 81° (E) 7,730 14.5 -40.6°
